THOR ABLESTAR DEB, 138

Orbit data source: Space-Track

THOR ABLESTAR DEB, 138 is space debris in LEO originally from a launch on Thu, 29 Jun 1961 UTC launched from the Air Force Eastern Test Range (AFETR). Debris objects in space refer to the collection of defunct objects orbiting the Earth. Examples of debris include non-operational satellites, rocket bodies, and fragments generated from explosions, collisions, or faulty payload assembly.

Loading next visibility...
Identifier
138, 1961-015Y
Orbit
LEO
Country
Flag of USUS
Related business
Manufacturer
Unknown
Mission
Spacecraft
Bus & Motor
Unknown
Mass
Unknown
Launch date (UTC)
1961-06-29 (65 years ago)
Launch vehicle
Unknown
Launch site
Air Force Eastern Test Range (AFETR)
Object type
Payload
Rocket body
Debris
Shape & HBR
Unknown shape, 0.3 m
Radar Cross Section
Medium (>0.1 m² and <1 m²)

Expand to show TLE details & history
Last TLE update: 22 hours ago

TLE from 22 hours ago
0 THOR ABLESTAR DEB
1 00138U 61015Y   26170.19979972  .00000276  00000-0  21948-3 0  9996
2 00138  67.1545  96.8630 0024582 126.9610 233.3734 14.04754194303112
Epoch: 2026-06-19T04:47Z
TLE epoch observation values (Epoch: 2026-06-19T04:47:42.695Z)
Latitude
-0.00011°
Longitude
117.50286°
Altitude
890.166 km
Speed
7.402 km/s
True Right ascension
06h 27m 27s
True Declination
0° 00' 00"
Sunlit
Object was in daylight at epoch
Visualization orbit readout
Latitude
Unknown
Longitude
Unknown
Altitude
Unknown
Speed
Unknown
Apparent Right ascension
Unknown
Apparent Declination
Unknown
Sunlit
N/A
Visualization observer readout
Local Sidereal Time
13:40:56
Azimuth
Unknown
Elevation
Unknown
Doppler factor
Unknown
Orbital elements
Apogee altitude
893.552 km
Perigee altitude
857.889 km
Semi-major axis
7,253.858 km
Eccentricity
0.00246
Inclination
67.1545°
RAAN
96.863°
Arg. of periapsis
126.961°
True anomaly
233.14775°
Mean anomaly
233.3734°
Eccentric anomaly
233.26053°
Mean motion
3.51309 °/min
Orbital period
102.47 mins
BSTAR
0.00021948

Documentation

Showing up to 5 results
|